ORBCOMM FM106 [-] (40088 NORAD) Tracking and Keplerian Element Data

This shows tracking and keplerian element data for the satellite.

Feedback or suggestion? Click here.




ElementValue
Catalog40088
NameORBCOMM FM106 [-]
Epoch Orbit48646
Epoch Day238.71715816
Epoch Year2023
RAAN122.3045
Inclination47.0614
Eccentricity0.0018649
Argument of Perigee246.4433
Mean Anonmoly113.4498
Mean Motion14.6591986
Decay Rate1.014E-05
L11 40088U 14040C 23238.71715816 .00001014 00000+0 21639-3 0 9992
L22 40088 47.0614 122.3045 0018649 246.4433 113.4498 14.65919860486462



Live tracking and technical data element details for ORBCOMM FM106 [-] (NORAD 40088). ORBCOMM FM106 [-] can be tracked NOW for your location showing map with azimuth and elevation plus other details from your city location.







IsCatalogInMostPopularTable: catalog: 40088, numindb: 375
Update: records affected: 1



GetName: 40088 ORBCOMM FM106 [-]

Hit Count: updated at: Thu, 22 May 2025 03:49:15 GMT